When you browse on this site, cookies collect data to enhance your experience and personalize the content and advertising you see.
Visit our Privacy Policy to learn more. By continuing to use the site, you agree to this use of cookies and data.
  • In Lithuania
  • List of Countries
  • For 7 days
  • Water Temperature
  • Satellite Maps
  • Weather Map
  • Weather Widgets
  • user-avatar
    Login

    Hourly Weather Nkongsamba

    Today, 20 May, Monday

    Time Temperature Precipitation Wind Pressure Humidity
    00:00 +20°C° 0.1 mm 0 mps 686 mmHg 95%
    01:00 +19°C° 0 mm 0 mps 686 mmHg 95%
    02:00 +19°C° 0.1 mm 0 mps 685 mmHg 94%
    03:00 +19°C° 0.1 mm 0 mps 685 mmHg 94%
    04:00 +19°C° 0.1 mm 0 mps 685 mmHg 94%
    05:00 +19°C° 0.1 mm 0 mps 685 mmHg 92%
    06:00 +20°C° 0.1 mm 0 mps 686 mmHg 91%
    07:00 +21°C° 0 mm 0 mps 686 mmHg 88%
    08:00 +23°C° 0.2 mm 0 mps 687 mmHg 79%
    09:00 +27°C° 0.2 mm 1 mps 687 mmHg 70%
    10:00 +29°C° 0.2 mm 1 mps 688 mmHg 62%
    11:00 +30°C° 0.6 mm 1 mps 688 mmHg 59%
    12:00 +31°C° 0.6 mm 1 mps 687 mmHg 57%
    13:00 +31°C° 0 mm 1 mps 687 mmHg 58%
    14:00 +31°C° 1.1 mm 1 mps 687 mmHg 57%
    15:00 +31°C° 1.1 mm 1 mps 686 mmHg 56%
    16:00 +31°C° 1.1 mm 1 mps 686 mmHg 55%
    17:00 +28°C° 1.5 mm 1 mps 686 mmHg 67%
    18:00 +26°C° 1.5 mm 1 mps 685 mmHg 80%
    19:00 +21°C° 1.5 mm 0 mps 685 mmHg 92%
    20:00 +21°C° 0.3 mm 0 mps 685 mmHg 93%
    21:00 +20°C° 0.3 mm 0 mps 686 mmHg 95%
    22:00 +20°C° 0.3 mm 0 mps 686 mmHg 97%
    23:00 +20°C° 1.6 mm 0 mps 686 mmHg 97%

    Tomorrow, 21 May, Tuesday

    Time Temperature Precipitation Wind Pressure Humidity
    00:00 +20°C° 1.6 mm 0 mps 686 mmHg 97%
    01:00 +20°C° 1.6 mm 0 mps 686 mmHg 98%
    02:00 +20°C° 0.5 mm 0 mps 686 mmHg 97%
    03:00 +19°C° 0.5 mm 0 mps 685 mmHg 97%
    04:00 +19°C° 0.5 mm 0 mps 685 mmHg 96%
    05:00 +19°C° 0.1 mm 0 mps 685 mmHg 95%
    06:00 +20°C° 0.1 mm 0 mps 686 mmHg 94%
    07:00 +20°C° 0.1 mm 0 mps 686 mmHg 93%
    08:00 +22°C° 0.3 mm 0 mps 687 mmHg 82%
    09:00 +27°C° 0.3 mm 1 mps 687 mmHg 71%
    10:00 +29°C° 0.3 mm 1 mps 688 mmHg 61%
    11:00 +30°C° 0.6 mm 1 mps 688 mmHg 59%
    12:00 +31°C° 0.6 mm 1 mps 687 mmHg 56%
    13:00 +31°C° 0.6 mm 1 mps 687 mmHg 54%
    14:00 +31°C° 0.9 mm 1 mps 687 mmHg 54%
    15:00 +31°C° 0.9 mm 1 mps 686 mmHg 53%
    16:00 +29°C° 0.9 mm 0 mps 686 mmHg 53%
    17:00 +27°C° 1.8 mm 0 mps 685 mmHg 65%
    18:00 +24°C° 1.8 mm 0 mps 685 mmHg 78%
    19:00 +23°C° 1.8 mm 1 mps 685 mmHg 90%
    20:00 +23°C° 0.8 mm 1 mps 685 mmHg 92%
    21:00 +20°C° 0.8 mm 0 mps 685 mmHg 94%
    22:00 +20°C° 0.8 mm 0 mps 686 mmHg 96%
    23:00 +20°C° 0.2 mm 0 mps 686 mmHg 96%

    Day after tomorrow, 22 May, Wednesday

    Time Temperature Precipitation Wind Pressure Humidity
    00:00 +19°C° 0.2 mm 0 mps 685 mmHg 96%
    01:00 +21°C° 0.2 mm 1 mps 685 mmHg 96%
    02:00 +21°C° 0 mm 1 mps 685 mmHg 96%
    03:00 +21°C° 0 mm 1 mps 685 mmHg 95%
    04:00 +21°C° 0 mm 1 mps 685 mmHg 95%
    05:00 +21°C° 0 mm 1 mps 685 mmHg 94%
    06:00 +21°C° 0 mm 1 mps 685 mmHg 92%
    07:00 +22°C° 0 mm 1 mps 686 mmHg 91%
    08:00 +24°C° 0.3 mm 1 mps 687 mmHg 84%
    09:00 +25°C° 0.3 mm 1 mps 688 mmHg 77%
    10:00 +27°C° 0.3 mm 1 mps 688 mmHg 70%
    11:00 +28°C° 0.3 mm 1 mps 688 mmHg 67%
    12:00 +28°C° 0.3 mm 1 mps 687 mmHg 63%
    13:00 +29°C° 0.3 mm 1 mps 687 mmHg 60%
    14:00 +29°C° 0.3 mm 1 mps 686 mmHg 58%
    15:00 +30°C° 0.3 mm 1 mps 686 mmHg 55%
    16:00 +31°C° 0.3 mm 1 mps 685 mmHg 52%
    17:00 +28°C° 1.1 mm 1 mps 685 mmHg 64%
    18:00 +26°C° 1.1 mm 1 mps 685 mmHg 75%
    19:00 +21°C° 1.1 mm 0 mps 685 mmHg 86%
    20:00 +21°C° 1 mm 0 mps 685 mmHg 89%
    21:00 +21°C° 1 mm 0 mps 686 mmHg 92%
    22:00 +20°C° 1 mm 0 mps 686 mmHg 95%
    23:00 +20°C° 0.6 mm 0 mps 686 mmHg 96%

    23 May, Thursday

    Time Temperature Precipitation Wind Pressure Humidity
    00:00 +20°C° 0.6 mm 0 mps 686 mmHg 96%
    01:00 +20°C° 0.6 mm 0 mps 685 mmHg 97%
    02:00 +20°C° 0.1 mm 0 mps 685 mmHg 96%
    03:00 +20°C° 0.1 mm 0 mps 685 mmHg 96%
    04:00 +22°C° 0.1 mm 1 mps 684 mmHg 95%
    05:00 +22°C° 0.7 mm 1 mps 685 mmHg 95%
    06:00 +20°C° 0.7 mm 0 mps 685 mmHg 95%
    07:00 +20°C° 0.7 mm 0 mps 686 mmHg 95%
    08:00 +22°C° 0.3 mm 0 mps 687 mmHg 84%
    09:00 +25°C° 0.3 mm 0 mps 687 mmHg 73%
    10:00 +27°C° 0.3 mm 0 mps 688 mmHg 63%
    11:00 +30°C° 0.3 mm 1 mps 688 mmHg 60%
    12:00 +30°C° 0.3 mm 1 mps 687 mmHg 57%
    13:00 +31°C° 0.3 mm 2 mps 687 mmHg 55%
    14:00 +31°C° 0.4 mm 2 mps 686 mmHg 56%
    15:00 +30°C° 0.4 mm 1 mps 685 mmHg 57%
    16:00 +30°C° 0.4 mm 1 mps 685 mmHg 58%
    17:00 +28°C° 0.5 mm 1 mps 685 mmHg 67%
    18:00 +26°C° 0.5 mm 1 mps 685 mmHg 76%
    19:00 +24°C° 0.5 mm 1 mps 685 mmHg 85%
    20:00 +21°C° 0.9 mm 0 mps 685 mmHg 88%
    21:00 +21°C° 0.9 mm 0 mps 686 mmHg 90%
    22:00 +20°C° 0.9 mm 0 mps 686 mmHg 93%
    23:00 +20°C° 0 mm 0 mps 685 mmHg 93%

    24 May, Friday

    Time Temperature Precipitation Wind Pressure Humidity
    00:00 +20°C° 0 mm 0 mps 685 mmHg 94%
    01:00 +19°C° 0 mm 0 mps 684 mmHg 94%
    02:00 +19°C° 0 mm 0 mps 684 mmHg 94%
    03:00 +19°C° 0 mm 0 mps 684 mmHg 94%
    04:00 +19°C° 0 mm 0 mps 684 mmHg 94%
    05:00 +19°C° 0.2 mm 0 mps 685 mmHg 92%
    06:00 +20°C° 0.2 mm 0 mps 685 mmHg 90%
    07:00 +22°C° 0.2 mm 1 mps 686 mmHg 89%
    08:00 +24°C° 0 mm 1 mps 686 mmHg 79%
    09:00 +27°C° 0 mm 1 mps 687 mmHg 69%
    10:00 +29°C° 0 mm 1 mps 688 mmHg 59%
    11:00 +30°C° 0.2 mm 1 mps 687 mmHg 58%
    12:00 +30°C° 0.2 mm 1 mps 686 mmHg 57%
    13:00 +31°C° 0.2 mm 2 mps 686 mmHg 57%
    14:00 +31°C° 1.1 mm 2 mps 685 mmHg 61%
    15:00 +30°C° 1.1 mm 1 mps 685 mmHg 65%
    16:00 +30°C° 1.1 mm 1 mps 684 mmHg 69%
    17:00 +28°C° 2.2 mm 1 mps 684 mmHg 78%
    18:00 +26°C° 2.2 mm 1 mps 684 mmHg 86%
    19:00 +24°C° 2.2 mm 1 mps 685 mmHg 95%
    20:00 +23°C° 0.2 mm 1 mps 685 mmHg 96%
    21:00 +21°C° 0.2 mm 0 mps 685 mmHg 97%
    22:00 +21°C° 0.2 mm 0 mps 686 mmHg 98%
    23:00 +21°C° 0.1 mm 0 mps 685 mmHg 98%

    25 May, Saturday

    Time Temperature Precipitation Wind Pressure Humidity
    00:00 +21°C° 0.1 mm 0 mps 685 mmHg 98%
    01:00 +21°C° 0.1 mm 0 mps 685 mmHg 98%
    02:00 +21°C° 0.1 mm 0 mps 685 mmHg 98%
    03:00 +21°C° 0.1 mm 0 mps 684 mmHg 98%
    04:00 +21°C° 0.1 mm 0 mps 684 mmHg 98%
    05:00 +21°C° 0.1 mm 0 mps 685 mmHg 97%
    06:00 +21°C° 0.1 mm 0 mps 685 mmHg 97%
    07:00 +21°C° 0.1 mm 0 mps 686 mmHg 97%
    08:00 +22°C° 0.2 mm 0 mps 686 mmHg 92%
    09:00 +23°C° 0.2 mm 0 mps 687 mmHg 87%
    10:00 +26°C° 0.2 mm 1 mps 687 mmHg 83%
    11:00 +27°C° 0.8 mm 1 mps 687 mmHg 77%
    12:00 +29°C° 0.8 mm 1 mps 687 mmHg 72%
    13:00 +30°C° 0.8 mm 1 mps 686 mmHg 66%
    14:00 +29°C° 1.8 mm 1 mps 686 mmHg 71%
    15:00 +28°C° 1.8 mm 1 mps 685 mmHg 76%
    16:00 +28°C° 1.8 mm 1 mps 685 mmHg 80%
    17:00 +26°C° 2 mm 1 mps 685 mmHg 86%
    18:00 +25°C° 2 mm 1 mps 685 mmHg 91%
    19:00 +23°C° 2 mm 1 mps 685 mmHg 96%
    20:00 +21°C° 0.2 mm 0 mps 685 mmHg 96%
    21:00 +21°C° 0.2 mm 0 mps 686 mmHg 97%
    22:00 +21°C° 0.2 mm 0 mps 686 mmHg 97%
    23:00 +20°C° 0.1 mm 0 mps 686 mmHg 97%
    Show more